Flight Track Log - Related Links

Times and Time Zones

All times are in EDT time to prevent confusion due to time zone crossing. See the QXE2384 flight status page for this flight to view local times or setup timezone preferences in your user account.


Time Position Orientation Groundspeed Altitude Reporting Facility
EDT Latitude Longitude Course Direction KTS MPH feet Rate Location/Type
Tue 03:19:25 PM 47.4483 -122.3097 189° South 123 142 1,200  Level Seattle Center
Tue 03:19:44 PM 47.4378 -122.3122 189° South 125 144 1,900 1,975 Climbing Seattle Center
Tue 03:20:44 PM 47.4350 -122.3794 267° West 198 228 3,800 2,281 Climbing Seattle Center
Tue 03:21:45 PM 47.4622 -122.4431 302° West 219 252 6,500 2,016 Climbing Seattle Center
Tue 03:22:46 PM 47.5294 -122.4814 339° North 270 311 7,900 738 Climbing Seattle Center
Tue 03:23:47 PM 47.6011 -122.5275 337° Northwest 268 308 8,000 78 Climbing Seattle Center
Tue 03:24:03 PM 47.6167 -122.5353 341° North 262 302 8,000  Level Seattle Center
Tue 03:24:54 PM 47.6772 -122.5744 336° Northwest 267 307 8,000  Level Seattle Center
Tue 03:25:55 PM 47.7453 -122.6161 338° Northwest 270 311 8,000  Level Seattle Center
Tue 03:26:11 PM 47.7622 -122.6267 337° Northwest 270 311 8,000  Level Seattle Center
Tue 03:27:06 PM 47.8203 -122.6606 339° North 271 312 8,000  Level Seattle Center
Tue 03:27:23 PM 47.8475 -122.6806 334° Northwest 270 311 8,000  Level Seattle Center
Tue 03:28:07 PM 47.8864 -122.7117 332° Northwest 272 313 8,000  Level Seattle Center
Tue 03:28:24 PM 47.9117 -122.7403 323° Northwest 272 313 8,000  Level Seattle Center
Tue 03:30:00 PM 48.0021 -122.8216 332° Northwest  Level FlightAware Approximate
Tue 03:37:00 PM 48.3850 -123.1592 342° North  Level FlightAware Approximate
Tue 03:38:00 PM 48.4306 -123.2139 326° Northwest  Level FlightAware Approximate
Tue 03:39:00 PM 48.4836 -123.2669 326° Northwest  Level FlightAware Approximate
Tue 03:40:00 PM 48.5401 -123.3101 336° Northwest  Level FlightAware Approximate
Tue 03:41:00 PM 48.5848 -123.3681 327° Northwest  Level FlightAware Approximate
Tue 03:42:00 PM 48.6333 -123.4167 327° Northwest  Level FlightAware Approximate
Tue 03:43:00 PM 48.6469 -123.4258 327° Northwest  Level Estimated
Tue 03:44:00 PM 48.6469 -123.4258 327° Northwest  Level Estimated
Tue 03:45:00 PM 48.6469 -123.4258 327° Northwest  Level Estimated
Tue 03:46:00 PM 48.6469 -123.4258 327° Northwest  Level Estimated
Tue 03:47:00 PM 48.6469 -123.4258 327° Northwest  Level Estimated
Tue 03:48:00 PM 48.6469 -123.4258 327° Northwest  Level Estimated
Tue 03:49:00 PM 48.6469 -123.4258 327° Northwest  Level Estimated
Tue 03:50:00 PM 48.6469 -123.4258 327° Northwest  Level Estimated
Tue 03:51:00 PM 48.6469 -123.4258 327° Northwest  Level Estimated
Tue 03:52:00 PM 48.6469 -123.4258 327° Northwest  Level Estimated
Tue 03:53:00 PM 48.6469 -123.4258 327° Northwest  Level Estimated
Tue 03:54:00 PM 48.6469 -123.4258 327° Northwest  Level Estimated
Tue 03:55:00 PM 48.6469 -123.4258 327° Northwest  Level Estimated
Tue 03:56:00 PM 48.6469 -123.4258 327° Northwest  Level Estimated
Tue 03:57:00 PM 48.6469 -123.4258 327° Northwest  Level Estimated

Login

Don't have an account? Register now (free) for customized features, flight alerts, and more!